User: anonymous   Login
Location: Kalberh�ni
(46.4610°N, 7.2453°E)
Time: 14:17:02
(UTC+00:00)
Language:

Lacrosse 4 Rocket - Orbit

View from above orbital plane
View from above orbital plane
View from above satellite
View from above satellite

Ground track
Ground track

The orbit data is extracted from the following two-line orbital elements,

1 26474U 00047B   21262.68010635  .00000168  00000-0  25328-4 0  9995
2 26474  67.9921 251.3987 0052137  49.0403 311.5233 14.96220176147932
Epoch (UTC): 19 September 2021 16:19:21
Eccentricity: 0.0052137
inclination: 67.9921°
perigee height: 542 km
apogee height: 615 km
right ascension of ascending node: 251.3987°
argument of perigee: 49.0403°
revolutions per day: 14.96220176
mean anomaly at epoch: 311.5233°
orbit number at epoch: 14793

The dashed part of the orbit path shows where the satellite is in the earth's shadow,  

DLR